[[{"header":{"parameterUnit":"m.s-1","parameterCategory":1,"la1":30.2991,"la2":30.254,"lo1":-89.0895,"lo2":-89.0444,"dy":0.0017,"dx":0.0017,"nx":28,"ny":28,"refTime":"2025-03-26T09:00:00:Z","depth":0,"parameterNumber":2,"parameterNumberName":"U-component_of_WINDS"},"data":[0,0,0,0,0,0,0,0,0,0,0,0,0,0,0,0,0,0,0,0,0,0,0,0,0,0,0,0,0,0,0,0,0,0,0,0,0,0,0,0,0,0,0,0,0,0,0,0,0,0,0,0,0,0,0,0,0,0,0.3567,0.3566,0,0.3566,0.3566,0.3566,0.3526,0.3525,0.3523,0.3522,0.3524,0.3525,0.3526,0,0,0,0,0,0,0,0,0,0,0,0,0,0.3536,0.3536,0.3567,0.3566,0.3566,0.3566,0.3566,0.3566,0.3526,0.3524,0.3523,0.3522,0.3524,0.3525,0.3526,0,0,0,0,0,0,0,0,0,0,0,0,0,0.3543,0.3537,0.3567,0.3546,0.3545,0.3566,0.3566,0.3566,0.3526,0.3524,0.3523,0.3521,0.3523,0.3525,0.3526,0.3567,0,0,0.3531,0.3532,0,0,0,0,0,0,0,0,0.3543,0.3545,0.3549,0.3548,0.3546,0.3544,0.3555,0.3566,0.3526,0.3533,0.3522,0.3521,0.3532,0.3533,0.3536,0.3567,0.3567,0.3531,0.3532,0.3533,0.3533,0,0,0,0,0,0,0,0.3543,0.3544,0.3566,0.355,0.3547,0.3538,0.3538,0.3557,0.3542,0.3532,0.353,0.353,0.3531,0.3535,0.3536,0.3567,0.3531,0.3532,0.3533,0.3534,0.3633,0.3635,0,0,0,0,0,0,0.3544,0.3544,0.3566,0.3566,0.354,0.354,0.3539,0.3546,0.3541,0.3539,0.3531,0.3528,0.3533,0.3534,0.3536,0.3584,0.3533,0.3534,0.3535,0.3631,0.3633,0.3635,0,0,0,0,0,0,0.3544,0.3547,0.3566,0.3554,0.3556,0.3542,0.355,0.3547,0.3551,0.354,0.3537,0.3538,0.3532,0.3534,0.356,0.3584,0.3535,0.3536,0.3629,0.3632,0.3634,0.3682,0,0,0,0,0,0,0.3543,0.3547,0.3562,0.3555,0.3557,0.359,0.3552,0.3548,0.3553,0.3549,0.3546,0.3544,0.3531,0.3558,0.3561,0.3585,0.3537,0.3627,0.3631,0.3634,0.3678,0.3685,0.3692,0,0,0,0,0,0.3542,0.3575,0.3563,0.3566,0.3575,0.3591,0.3592,0.3576,0.3556,0.3571,0.3564,0.3544,0.358,0.3561,0.3564,0.3589,0.3626,0.363,0.3633,0.3675,0.3684,0.3692,0,0,0,0,0,0,0.3586,0.3574,0.356,0.3592,0.3593,0.3584,0.3603,0.3586,0.3594,0.3589,0.3569,0.3569,0.3599,0.3596,0.3574,0.3629,0.3599,0.3604,0.363,0.3638,0.3645,0.3646,0.3539,0,0,0,0,0,0.3599,0.3613,0.3602,0.3631,0.3632,0.3618,0.3624,0.3611,0.3612,0.3612,0.3607,0.3609,0.3621,0.3629,0.3639,0.3677,0.3676,0.3696,0.3703,0.3708,0.3713,0.3734,0.3743,0.3648,0.3648,0.3648,0,0,0.3627,0.3622,0.3632,0.364,0.3639,0.3654,0.3618,0.3636,0.3647,0.3615,0.3639,0.3636,0.3637,0.3669,0.3683,0.3668,0.3739,0.3713,0.3718,0.372,0.3739,0.3748,0.3756,0.3651,0.365,0.365,0,0,0.3686,0.3683,0.3707,0.3707,0.3706,0.3696,0.3702,0.3696,0.3693,0.3717,0.3693,0.3707,0.3727,0.3729,0.3733,0.3792,0.3774,0.3796,0.3833,0.3854,0.3861,0.3868,0.389,0.3899,0.38,0.3801,0.3801,0,0.3721,0.3742,0.3722,0.3741,0.3746,0.3716,0.3742,0.3743,0.3745,0.375,0.3732,0.3758,0.3756,0.3789,0.3804,0.3807,0.3814,0.3797,0.3862,0.3868,0.3874,0.3895,0.3904,0.3803,0.3803,0.3803,0.3802,0,0.3786,0.3801,0.3821,0.3824,0.383,0.3852,0.3837,0.3846,0.3832,0.3824,0.385,0.3847,0.3856,0.3863,0.385,0.3894,0.3885,0.3865,0.3835,0.3886,0.3906,0.3914,0.3807,0.3806,0.3805,0.3805,0,0,0.3873,0.3865,0.3872,0.3874,0.387,0.3882,0.3903,0.3911,0.392,0.3923,0.3941,0.3959,0.3941,0.3945,0.3932,0.395,0.3998,0.3927,0.3927,0.3942,0.4048,0.4064,0.4074,0.3986,0.3987,0.3988,0.4049,0,0.3931,0.3966,0.3949,0.3986,0.4,0.3973,0.3991,0.3991,0.3985,0.3996,0.3989,0.4003,0.3977,0.3979,0.3995,0.3989,0.402,0.3984,0.4004,0.4005,0.4006,0.4084,0.4101,0.4158,0.4056,0.4057,0.4058,0,0.4004,0.4009,0.4048,0.4042,0.4047,0.4064,0.4071,0.4082,0.4082,0.4076,0.4081,0.4064,0.4085,0.4054,0.4084,0.406,0.4067,0.4065,0.4067,0.4069,0.4036,0.409,0.4176,0.4185,0.407,0.4069,0.4068,0,0.4066,0.4082,0.4108,0.4109,0.4103,0.4116,0.4114,0.4112,0.4119,0.4125,0.4129,0.4138,0.4143,0.415,0.4137,0.4115,0.4169,0.4137,0.4165,0.4166,0.4179,0.4179,0.4269,0.4181,0.4181,0.4181,0.4181,0,0.4133,0.4158,0.4135,0.4151,0.4179,0.4159,0.4187,0.4182,0.4181,0.4196,0.4172,0.4187,0.4167,0.418,0.417,0.4196,0.4199,0.4195,0.4192,0.4198,0.4199,0.4204,0.42,0.4183,0.4183,0.4182,0.4182,0,0.4207,0.4193,0.4219,0.4211,0.4209,0.423,0.4223,0.4238,0.4229,0.4249,0.4252,0.4239,0.4253,0.424,0.4254,0.4246,0.4283,0.4273,0.4283,0.4281,0.4311,0.4309,0.4408,0.4421,0.4324,0.4325,0.4325,0,0.4252,0.4271,0.4264,0.4272,0.4271,0.4285,0.4291,0.4272,0.428,0.4281,0.4296,0.4308,0.4317,0.4342,0.4334,0.4345,0.4336,0.437,0.4338,0.4343,0.4339,0.4338,0.4341,0.4377,0.4379,0.4379,0.438,0,0.4333,0.4325,0.4335,0.4342,0.435,0.4355,0.4358,0.4367,0.4347,0.4357,0.4371,0.4378,0.4391,0.4404,0.4413,0.4411,0.4394,0.439,0.4398,0.4405,0.441,0.4409,0.4302,0.4388,0.4388,0.4387,0.4387,0.4386,0.4395,0.4411,0.4409,0.442,0.442,0.4424,0.4438,0.443,0.4442,0.4451,0.4439,0.4457,0.4457,0.4466,0.4467,0.4481,0.4467,0.4477,0.448,0.4484,0.4489,0.4406,0.4482,0.4482,0.4482,0.4481,0.4481,0,0.4477,0.4474,0.4484,0.4489,0.4499,0.4479,0.4482,0.4492,0.4507,0.4508,0.4517,0.4534,0.4546,0.4539,0.455,0.4563,0.4555,0.4566,0.4566,0.4567,0.45,0.4493,0.4573,0.4573,0.4573,0.4573,0.4573,0.4573,0.452,0.4546,0.4537,0.4563,0.456,0.4577,0.458,0.4584,0.4584,0.4604,0.4614,0.4608,0.4607,0.4617,0.4628,0.4626,0.4632,0.4647,0.4642,0.458,0.4571,0.4562,0.4556,0.4648,0.4648,0.4707,0.4708,0.4708]},{"header":{"parameterUnit":"m.s-1","parameterCategory":1,"la1":30.2991,"la2":30.254,"lo1":-89.0895,"lo2":-89.0444,"dy":0.0017,"dx":0.0017,"nx":28,"ny":28,"refTime":"2025-03-26T09:00:00:Z","depth":0,"parameterNumber":3,"parameterNumberName":"V-component_of_WINDS"},"data":[0,0,0,0,0,0,0,0,0,0,0,0,0,0,0,0,0,0,0,0,0,0,0,0,0,0,0,0,0,0,0,0,0,0,0,0,0,0,0,0,0,0,0,0,0,0,0,0,0,0,0,0,0,0,0,0,0,0,-0.1163,-0.1163,0,-0.1206,-0.1206,-0.1207,-0.1247,-0.1248,-0.1248,-0.1249,-0.1292,-0.1293,-0.1294,0,0,0,0,0,0,0,0,0,0,0,0,0,-0.1116,-0.1116,-0.1163,-0.1163,-0.1164,-0.1206,-0.1206,-0.1207,-0.1247,-0.1248,-0.1249,-0.1249,-0.1292,-0.1293,-0.1294,0,0,0,0,0,0,0,0,0,0,0,0,0,-0.1145,-0.1116,-0.1163,-0.1189,-0.1192,-0.1206,-0.1206,-0.1207,-0.1247,-0.1248,-0.1249,-0.1249,-0.1292,-0.1293,-0.1294,-0.1285,0,0,-0.1297,-0.1297,0,0,0,0,0,0,0,0,-0.1143,-0.1147,-0.1185,-0.1187,-0.119,-0.1222,-0.1206,-0.1233,-0.1247,-0.1226,-0.1249,-0.125,-0.1268,-0.1271,-0.1278,-0.1287,-0.1289,-0.1297,-0.1298,-0.1298,-0.1298,0,0,0,0,0,0,0,-0.1141,-0.1145,-0.118,-0.1185,-0.1189,-0.1199,-0.1204,-0.1211,-0.1242,-0.1228,-0.1231,-0.1236,-0.127,-0.1277,-0.1279,-0.1289,-0.1297,-0.1298,-0.1299,-0.1299,-0.1293,-0.1292,0,0,0,0,0,0,-0.1135,-0.1143,-0.1178,-0.1181,-0.1168,-0.1199,-0.1205,-0.1211,-0.1242,-0.1248,-0.1235,-0.1237,-0.1274,-0.1278,-0.1281,-0.1272,-0.1298,-0.1299,-0.13,-0.1294,-0.1293,-0.1292,0,0,0,0,0,0,-0.1134,-0.1138,-0.1177,-0.1163,-0.1169,-0.1199,-0.1206,-0.1212,-0.1218,-0.1248,-0.1253,-0.1236,-0.1275,-0.1279,-0.1283,-0.1274,-0.1299,-0.13,-0.1295,-0.1294,-0.1292,-0.1254,0,0,0,0,0,0,-0.1132,-0.1137,-0.1134,-0.1163,-0.1169,-0.1179,-0.1205,-0.1212,-0.122,-0.1223,-0.125,-0.1255,-0.1276,-0.1282,-0.1284,-0.1276,-0.1301,-0.1296,-0.1294,-0.1293,-0.1257,-0.1252,-0.1248,0,0,0,0,0,-0.1131,-0.1121,-0.1134,-0.1138,-0.1166,-0.1178,-0.1182,-0.1206,-0.1219,-0.1216,-0.1235,-0.1254,-0.1275,-0.1282,-0.1285,-0.1277,-0.1296,-0.1295,-0.1293,-0.1258,-0.1253,-0.1248,0,0,0,0,0,0,-0.1091,-0.1126,-0.114,-0.1139,-0.1156,-0.1185,-0.1182,-0.12,-0.1212,-0.1215,-0.1245,-0.125,-0.1251,-0.1265,-0.1272,-0.127,-0.1288,-0.1287,-0.1261,-0.1256,-0.1252,-0.1248,-0.1302,0,0,0,0,0,-0.1082,-0.1089,-0.1119,-0.1116,-0.1124,-0.1151,-0.1157,-0.1175,-0.1193,-0.12,-0.1219,-0.1235,-0.1245,-0.1251,-0.1262,-0.1259,-0.1265,-0.1255,-0.1251,-0.1247,-0.1245,-0.1245,-0.124,-0.1286,-0.1286,-0.1286,0,0,-0.1064,-0.1084,-0.1087,-0.1109,-0.1123,-0.113,-0.1157,-0.1162,-0.1168,-0.12,-0.1206,-0.122,-0.1241,-0.1241,-0.1242,-0.1252,-0.1234,-0.1245,-0.1242,-0.1242,-0.1242,-0.1238,-0.1234,-0.1285,-0.1285,-0.1286,0,0,-0.1034,-0.105,-0.1049,-0.1063,-0.1085,-0.1104,-0.1103,-0.113,-0.1141,-0.1147,-0.1172,-0.1179,-0.1195,-0.1209,-0.1218,-0.1193,-0.1212,-0.1196,-0.1174,-0.1173,-0.1169,-0.1166,-0.1157,-0.1153,-0.1195,-0.1195,-0.1195,0,-0.1009,-0.102,-0.1047,-0.1051,-0.106,-0.109,-0.109,-0.1102,-0.1126,-0.1131,-0.1143,-0.1164,-0.118,-0.1184,-0.1178,-0.1184,-0.1185,-0.1193,-0.1167,-0.1165,-0.1162,-0.1154,-0.115,-0.1193,-0.1193,-0.1193,-0.1193,0,-0.0988,-0.0995,-0.0992,-0.1014,-0.1023,-0.1025,-0.1052,-0.1057,-0.1074,-0.1091,-0.1097,-0.1117,-0.1132,-0.1135,-0.1151,-0.1141,-0.1146,-0.1162,-0.1181,-0.1155,-0.1148,-0.1145,-0.119,-0.119,-0.1191,-0.1192,0,0,-0.0933,-0.0971,-0.0969,-0.098,-0.1007,-0.1013,-0.1016,-0.1031,-0.1035,-0.1051,-0.1054,-0.1068,-0.1083,-0.1093,-0.1111,-0.111,-0.1089,-0.1126,-0.1127,-0.1118,-0.1079,-0.1067,-0.1063,-0.1102,-0.1101,-0.1101,-0.1077,0,-0.0908,-0.0915,-0.094,-0.094,-0.0947,-0.0976,-0.0979,-0.0995,-0.1012,-0.102,-0.1038,-0.1047,-0.1066,-0.1072,-0.1073,-0.1092,-0.1082,-0.1094,-0.1105,-0.1105,-0.1098,-0.1059,-0.1046,-0.1022,-0.1075,-0.1074,-0.1074,0,-0.0879,-0.0893,-0.0894,-0.092,-0.0924,-0.0926,-0.0942,-0.095,-0.0969,-0.0981,-0.0992,-0.1013,-0.1018,-0.1036,-0.1043,-0.105,-0.1057,-0.1067,-0.1066,-0.1068,-0.1087,-0.1059,-0.1016,-0.1012,-0.107,-0.107,-0.107,0,-0.0839,-0.0858,-0.0861,-0.0869,-0.09,-0.0901,-0.0913,-0.0934,-0.0941,-0.0955,-0.0961,-0.0975,-0.0983,-0.0994,-0.1017,-0.1028,-0.1022,-0.1042,-0.1032,-0.1031,-0.1028,-0.1028,-0.0985,-0.1033,-0.1033,-0.1033,-0.1033,0,-0.0807,-0.0807,-0.0843,-0.0845,-0.0845,-0.0873,-0.0872,-0.0888,-0.0906,-0.0911,-0.0937,-0.0942,-0.0973,-0.0981,-0.1,-0.1002,-0.1006,-0.1016,-0.102,-0.1013,-0.1012,-0.1017,-0.1019,-0.1032,-0.1032,-0.1032,-0.1033,0,-0.0762,-0.0787,-0.0792,-0.0821,-0.0828,-0.0827,-0.0852,-0.0854,-0.0873,-0.0879,-0.0882,-0.091,-0.0921,-0.0946,-0.0963,-0.0976,-0.0974,-0.0983,-0.0967,-0.097,-0.0958,-0.0959,-0.0916,-0.0912,-0.0963,-0.0963,-0.0962,0,-0.074,-0.0741,-0.077,-0.0775,-0.0787,-0.0795,-0.0804,-0.0831,-0.0839,-0.0861,-0.0861,-0.0874,-0.0885,-0.0901,-0.0923,-0.0936,-0.0946,-0.093,-0.0948,-0.094,-0.0945,-0.0945,-0.0945,-0.0926,-0.0925,-0.0925,-0.0924,0,-0.0699,-0.0711,-0.0722,-0.0737,-0.0746,-0.0759,-0.0774,-0.0777,-0.0808,-0.0815,-0.0826,-0.0835,-0.0853,-0.0865,-0.0882,-0.0895,-0.0915,-0.0919,-0.0917,-0.0909,-0.0899,-0.0904,-0.0956,-0.0919,-0.092,-0.092,-0.092,-0.0921,-0.0665,-0.0666,-0.0687,-0.0698,-0.0712,-0.0725,-0.0729,-0.0748,-0.0758,-0.0774,-0.079,-0.08,-0.0819,-0.0844,-0.0856,-0.0864,-0.0874,-0.0871,-0.0871,-0.0869,-0.0866,-0.0899,-0.0867,-0.0867,-0.0868,-0.0868,-0.0868,0,-0.0624,-0.0639,-0.0649,-0.0668,-0.0677,-0.0695,-0.0712,-0.0718,-0.0727,-0.0743,-0.0754,-0.0767,-0.0779,-0.0803,-0.0817,-0.0819,-0.0828,-0.0821,-0.0821,-0.0824,-0.0857,-0.0856,-0.0814,-0.0814,-0.0814,-0.0814,-0.0814,-0.0814,-0.0604,-0.0607,-0.0622,-0.0632,-0.0647,-0.0657,-0.0665,-0.0677,-0.0691,-0.0704,-0.0715,-0.073,-0.0749,-0.0765,-0.0777,-0.0783,-0.0787,-0.0778,-0.0787,-0.0817,-0.0822,-0.0827,-0.0827,-0.0778,-0.0778,-0.0754,-0.0753,-0.0753]}]]